TimeMST,TemperatureF,Dew PointF,Humidity,Sea Level PressureIn,VisibilityMPH,Wind Direction,Wind SpeedMPH,Gust SpeedMPH,PrecipitationIn,Events,Conditions,WindDirDegrees,DateUTC
12:53 AM,-7.1,-11.9,79,30.29,10.0,WNW,15.0,-,N/A,,Clear,290,2013-12-05 07:53:00
1:53 AM,-7.1,-13.0,75,30.30,10.0,WNW,19.6,27.6,N/A,,Clear,290,2013-12-05 08:53:00
2:53 AM,-8.0,-14.1,75,30.31,10.0,WNW,23.0,-,N/A,,Clear,300,2013-12-05 09:53:00
3:39 AM,-9.4,-14.8,77,30.10,10.0,WNW,17.3,-,N/A,,Scattered Clouds,290,2013-12-05 10:39:00
3:53 AM,-9.0,-15.0,75,30.33,10.0,West,16.1,-,N/A,,Mostly Cloudy,280,2013-12-05 10:53:00
4:12 AM,-9.4,-16.6,71,30.12,10.0,WNW,13.8,-,N/A,,Partly Cloudy,290,2013-12-05 11:12:00
4:53 AM,-13.0,-18.0,78,30.35,10.0,WNW,9.2,-,N/A,,Partly Cloudy,290,2013-12-05 11:53:00
5:53 AM,-11.0,-16.1,78,30.35,10.0,West,16.1,-,N/A,,Clear,280,2013-12-05 12:53:00
6:53 AM,-13.0,-18.0,78,30.36,10.0,West,16.1,-,N/A,,Clear,280,2013-12-05 13:53:00
7:53 AM,-13.0,-18.9,75,30.37,10.0,West,21.9,-,N/A,,Clear,280,2013-12-05 14:53:00
8:53 AM,-11.0,-17.0,75,30.39,10.0,West,21.9,-,N/A,,Clear,280,2013-12-05 15:53:00
9:53 AM,-9.0,-16.1,71,30.40,10.0,West,20.7,28.8,N/A,,Clear,280,2013-12-05 16:53:00
10:53 AM,-7.1,-15.0,68,30.41,10.0,West,21.9,28.8,N/A,,Clear,280,2013-12-05 17:53:00
11:53 AM,-7.1,-15.0,68,30.41,10.0,WNW,20.7,28.8,N/A,,Clear,290,2013-12-05 18:53:00
12:53 PM,-6.0,-14.1,68,30.39,10.0,WNW,25.3,31.1,N/A,,Clear,290,2013-12-05 19:53:00
1:53 PM,-6.0,-14.1,68,30.40,10.0,WNW,18.4,28.8,N/A,,Clear,290,2013-12-05 20:53:00
2:53 PM,-7.1,-15.0,68,30.43,10.0,WNW,21.9,-,N/A,,Clear,290,2013-12-05 21:53:00
3:53 PM,-9.0,-16.1,71,30.44,10.0,WNW,18.4,-,N/A,,Clear,290,2013-12-05 22:53:00
4:53 PM,-11.0,-17.0,75,30.47,10.0,WNW,15.0,-,N/A,,Clear,300,2013-12-05 23:53:00
5:53 PM,-11.0,-17.0,75,30.49,10.0,WNW,17.3,-,N/A,,Clear,290,2013-12-06 00:53:00
6:53 PM,-11.9,-18.0,74,30.52,10.0,WNW,11.5,-,N/A,,Clear,290,2013-12-06 01:53:00
7:53 PM,-15.0,-20.0,78,30.55,10.0,WNW,8.1,-,N/A,,Clear,300,2013-12-06 02:53:00
8:53 PM,-18.9,-23.1,81,30.57,10.0,WNW,9.2,-,N/A,,Clear,300,2013-12-06 03:53:00
9:53 PM,-17.0,-22.0,78,30.56,10.0,WNW,6.9,-,N/A,,Clear,300,2013-12-06 04:53:00
10:53 PM,-20.0,-25.1,78,30.58,10.0,NW,5.8,-,N/A,,Clear,310,2013-12-06 05:53:00
11:53 PM,-18.9,-23.1,81,30.58,10.0,WNW,11.5,-,N/A,,Clear,290,2013-12-06 06:53:00